Location: Ústí nad Labem
(50.6611°N, 14.0531°E)
Time: 15:27:56
(UTC+02:00)

Transit 2A Rocket - Pass Details

Date: 22 April 2024
Orbit: 585 x 909 km, 66.7° (Epoch: 20 May)

Event Time Altitude Azimuth Distance (km) Brightness Sun altitude
Rises 20:45:25 0° 321° (NW) 3,281 9.7 -5.8°
Reaches altitude 10° 20:47:46 10° 319° (NW) 2,396 8.9 -6.1°
Maximum altitude 20:53:18 68° 237° (WSW) 919 5.6 -6.9°
Drops below altitude 10° 20:59:11 10° 156° (SSE) 2,550 7.2 -7.7°
Enters shadow 21:00:46 - 155° (SSE) 3,138 7.7 -7.9°
